Hourly Data Report for April 21, 2005

TORONTO CITY
ONTARIO

43°40'00.000" N
79°24'00.000" W
112.50 m
6158355
71508
XTO

Download Data

Hourly Data (April 2005)
Hourly Data Report for April 21, 2005
TIME
LST
Temp Definition
°C
Dew Point Definition
°C
Rel Hum Definition
%
Precip. Amount Definition
mm

Wind Dir Definition
10's deg

Wind Spd Definition
km/h
Visibility Definition
km
Stn Press Definition
kPa
Hmdx Definition


Wind Chill Definition


Weather Definition


00:00 5.2 0.5 72   LegendMM LegendMM   100.45     LegendNANA
01:00 4.8 0.2 72   LegendMM LegendMM   100.47     LegendNANA
02:00 4.7 -0.4 69   LegendMM LegendMM   100.47     LegendNANA
03:00 4.3 -0.9 69   LegendMM LegendMM   100.50     LegendNANA
04:00 4.3 -1.3 67   LegendMM LegendMM   100.55     LegendNANA
05:00 3.9 -1.6 67   LegendMM LegendMM   100.61     LegendNANA
06:00 3.4 -1.5 70   LegendMM LegendMM   100.66     LegendNANA
07:00 4.5 -2.4 61   LegendMM LegendMM   100.70     LegendNANA
08:00 6.5 -3.9 47   LegendMM LegendMM   100.72     LegendNANA
09:00 7.9 -5.3 39   LegendMM LegendMM   100.73     LegendNANA
10:00 8.8 -5.7 35   LegendMM LegendMM   100.76     LegendNANA
11:00
12:00 8.8 -4.5 39   LegendMM LegendMM   100.68     LegendNANA
13:00 8.1 -6.8 34   LegendMM LegendMM   100.70     LegendNANA
14:00 9.2 -4.9 37   LegendMM LegendMM   100.70     LegendNANA
15:00 8.7 -5.7 36   LegendMM LegendMM   100.66     LegendNANA
16:00 8.3 -5.5 37   LegendMM LegendMM   100.57     LegendNANA
17:00 8.4 -5.7 36   LegendMM LegendMM   100.50     LegendNANA
18:00 8.8 -4.8 38   LegendMM LegendMM   100.46     LegendNANA
19:00 8.0 -4.7 40   LegendMM LegendMM   100.42     LegendNANA
20:00 8.1 -4.5 41   LegendMM LegendMM   100.41     LegendNANA
21:00 7.7 -4.4 42   LegendMM LegendMM   100.45     LegendNANA
22:00 7.5 -3.5 46   LegendMM LegendMM   100.41     LegendNANA
23:00 7.2 -3.4 47   LegendMM LegendMM   100.35     LegendNANA

Notes on Data Quality.

Legend

  • E = Estimated
  • M = Missing
  • NA = Not Available*
  • [empty] = Indicates an unobserved value
Date modified: